Weather History for Tacoma, WA

Change the Weather History Date:

Friday, January 18, 2013

  Actual Average Record
Temperature  
Mean Temperature 32 °F -  
Max Temperature 39 °F 45 °F 62 °F (2005)
Min Temperature 24 °F 33 °F 16 °F (1993)
Degree Days  
Heating Degree Days 34    
Moisture  
Dew Point 31 °F    
Average Humidity 99    
Maximum Humidity 100    
Minimum Humidity 93    
Precipitation  
Precipitation 0.00 in - - ()
Sea Level Pressure  
Sea Level Pressure 30.30 in    
Wind  
Wind Speed 2 mph (NE)    
Max Wind Speed 7 mph    
Max Gust Speed -    
Visibility 2 miles    
Events Fog    
Averages and records for this station are not official NWS values.
T = Trace of Precipitation, MM = Missing Value Source: NWS Daily Summary

Daily Weather History Graph

Daily Weather History Graph

Search for Another Location

Airport:

Trip Planner

Search our weather history database for the weather conditions in past years. The results will help you decide how hot, cold, wet, or windy it might be!

Date:

Astronomy

Jan. 18, 2013 Rise Set
Actual Time 7:49 AM PST 4:52 PM PST
Civil Twilight 7:15 AM PST 5:26 PM PST
Nautical Twilight 6:37 AM PST 6:03 PM PST
Astronomical Twilight 6:01 AM PST 6:40 PM PST
Moon 10:57 AM PST (1/18) 12:19 AM PST (1/18)
Length of Visible Light 10h 10m
Length of Day
9h 02m
Waxing Crescent, 48% of the Moon is Illuminated
Jan 18
Waxing Crescent
Jan 18
First Quarter
Jan 26
Full
Feb 3
Last Quarter
Feb 9
New

Hourly Weather History & Observations

Time (PST) Temp. Windchill Dew Point Humidity Pressure Visibility Wind Dir Wind Speed Gust Speed Precip Events Conditions
12:04 AM 30.2 °F - 30.2 °F 100% 30.30 in 0.8 mi ESE 2.3 mph - N/A   Mist
12:36 AM 30.2 °F - 28.4 °F 93% 30.30 in 0.5 mi SSW 1.2 mph - N/A Fog Light Freezing Drizzle
12:41 AM 30.2 °F - 28.4 °F 93% 30.30 in 0.5 mi ENE 1.2 mph - N/A Fog Light Freezing Drizzle
12:55 AM 28.4 °F - 28.4 °F 100% 30.29 in 0.2 mi NW 1.2 mph - N/A Fog Light Freezing Drizzle
12:58 AM 29.1 °F - 28.9 °F 99% 30.31 in 0.2 mi Calm Calm - 0.00 in Fog Light Freezing Drizzle
1:09 AM 28.4 °F - 28.4 °F 100% 30.29 in 0.5 mi SSW 2.3 mph - N/A Fog Light Freezing Fog
1:23 AM 28.4 °F - 28.4 °F 100% 30.29 in 0.5 mi Calm Calm - N/A Fog Light Freezing Fog
1:39 AM 28.4 °F - 28.4 °F 100% 30.29 in 0.2 mi Variable 1.2 mph - N/A Fog Light Freezing Fog
1:47 AM 28.4 °F - 28.4 °F 100% 30.29 in 0.2 mi Calm Calm - N/A Fog Light Freezing Fog
1:58 AM 28.4 °F - 28.4 °F 100% 30.31 in 0.2 mi WNW 1.2 mph - 0.00 in Fog Light Freezing Fog
2:28 AM 28.4 °F - 28.4 °F 100% 30.29 in 0.8 mi SE 1.2 mph - N/A   Mist
2:56 AM 28.4 °F - 28.4 °F 100% 30.29 in 1.0 mi South 2.3 mph - N/A   Mist
2:58 AM 27.9 °F - 27.7 °F 99% 30.30 in 1.0 mi South 2.3 mph - N/A   Mist
3:09 AM 28.4 °F - 28.4 °F 100% 30.28 in 1.2 mi South 2.3 mph - N/A   Overcast
3:16 AM 28.4 °F - 28.4 °F 100% 30.28 in 1.0 mi SSW 1.2 mph - N/A   Mist
3:24 AM 28.4 °F - 28.4 °F 100% 30.28 in 1.0 mi SW 2.3 mph - N/A   Mist
3:30 AM 28.4 °F - 28.4 °F 100% 30.28 in 0.8 mi WSW 1.2 mph - N/A   Mist
3:35 AM 28.4 °F - 26.6 °F 93% 30.27 in 0.5 mi Calm Calm - N/A Fog Light Freezing Fog
3:56 AM 26.6 °F - 26.6 °F 100% 30.27 in 0.2 mi WSW 1.2 mph - N/A Fog Light Freezing Fog
3:58 AM 27.3 °F - 27.1 °F 99% 30.30 in 0.2 mi West 1.2 mph - N/A Fog Light Freezing Fog
4:16 AM 26.6 °F - 26.6 °F 100% 30.27 in 0.2 mi Calm Calm - N/A Fog Light Freezing Fog
4:26 AM 26.6 °F - 26.6 °F 100% 30.27 in 0.2 mi NNE 2.3 mph - N/A Fog Light Freezing Fog
4:27 AM 26.6 °F - 26.6 °F 100% 30.27 in 0.2 mi NNE 2.3 mph - N/A Fog Light Freezing Drizzle
4:32 AM 26.6 °F - 26.6 °F 100% 30.27 in 0.5 mi NE 2.3 mph - N/A Fog Light Freezing Drizzle
4:58 AM 26.6 °F - 26.2 °F 99% 30.30 in 0.5 mi NNE 2.3 mph - 0.00 in Fog Light Freezing Drizzle
5:04 AM 26.6 °F - 26.6 °F 100% 30.26 in 0.5 mi NNE 2.3 mph - N/A Fog Light Freezing Fog
5:27 AM 26.6 °F - 26.6 °F 100% 30.26 in 0.2 mi NNE 2.3 mph - N/A Fog Light Freezing Fog
5:32 AM 26.6 °F - 26.6 °F 100% 30.26 in 0.2 mi NNE 2.3 mph - N/A Fog Light Freezing Fog
5:42 AM 26.6 °F - 26.6 °F 100% 30.26 in 0.2 mi Calm Calm - N/A Fog Light Freezing Fog
5:58 AM 26.1 °F - 25.9 °F 99% 30.30 in 0.5 mi Calm Calm - 0.00 in Fog Light Freezing Fog
6:08 AM 26.6 °F - 24.8 °F 93% 30.26 in 0.2 mi Calm Calm - N/A Fog Light Freezing Fog
6:23 AM 26.6 °F - 24.8 °F 93% 30.27 in 0.2 mi Calm Calm - N/A Fog Light Freezing Fog
6:29 AM 26.6 °F - 24.8 °F 93% 30.26 in 0.5 mi Calm Calm - N/A Fog Light Freezing Fog
6:34 AM 26.6 °F - 24.8 °F 93% 30.27 in 0.8 mi Calm Calm - N/A   Mist
6:41 AM 26.6 °F - 24.8 °F 93% 30.27 in 0.8 mi NNE 1.2 mph - N/A   Clear
6:56 AM 24.8 °F - 24.8 °F 100% 30.27 in 1.0 mi North - - N/A   Clear
6:58 AM 24.8 °F - 24.8 °F 100% 30.30 in 1.2 mi Calm Calm - N/A   Clear
7:03 AM 24.8 °F - 24.8 °F 100% 30.27 in 2.0 mi NE 2.3 mph - N/A   Clear
7:09 AM 24.8 °F - 24.8 °F 100% 30.27 in 4.0 mi NNE 2.3 mph - N/A   Clear
8:58 AM 28.0 °F - 27.9 °F 99% 30.30 in 10.0 mi Calm Calm - N/A   Partly Cloudy
9:58 AM 31.1 °F - 30.9 °F 99% 30.32 in 8.0 mi NE 2.3 mph - N/A   Clear
11:58 AM 36.1 °F - 36.0 °F 99% 30.31 in 10.0 mi Calm Calm - N/A   Clear
12:58 PM 39.0 °F 36.8 °F 38.8 °F 99% 30.30 in 10.0 mi NNW 3.5 mph - N/A   Scattered Clouds
1:58 PM 39.0 °F 34.0 °F 38.8 °F 99% 30.30 in 10.0 mi NNW 6.9 mph - N/A   Clear
2:58 PM 37.0 °F 32.4 °F 35.4 °F 94% 30.31 in 5.0 mi NE 5.8 mph - N/A   Partly Cloudy
3:17 PM 35.6 °F 31.7 °F 35.6 °F 100% 30.30 in 5.0 mi NE 4.6 mph - N/A   Mostly Cloudy
3:41 PM 35.6 °F 30.7 °F 35.6 °F 100% 30.30 in 4.0 mi North 5.8 mph - N/A   Overcast
3:52 PM 35.6 °F 31.7 °F 35.6 °F 100% 30.30 in 4.0 mi ENE 4.6 mph - N/A   Overcast
3:58 PM 35.8 °F 31.9 °F 35.6 °F 99% 30.32 in 4.0 mi NE 4.6 mph - N/A   Overcast
4:58 PM 36.0 °F - 35.8 °F 99% 30.32 in 4.0 mi Calm Calm - N/A   Overcast
5:21 PM 35.6 °F - 35.6 °F 100% 30.30 in 5.0 mi NE 1.2 mph - N/A   Overcast
5:26 PM 35.6 °F - 35.6 °F 100% 30.30 in 4.0 mi NE 2.3 mph - N/A   Overcast
5:58 PM 35.8 °F 33.0 °F 35.6 °F 99% 30.33 in 3.0 mi NE 3.5 mph - N/A   Overcast
6:13 PM 35.6 °F - 35.6 °F 100% 30.30 in 2.5 mi East 1.2 mph - N/A   Overcast
6:26 PM 35.6 °F 32.8 °F 35.6 °F 100% 30.30 in 2.0 mi East 3.5 mph - N/A   Overcast
6:42 PM 35.6 °F - 35.6 °F 100% 30.30 in 2.5 mi SE 2.3 mph - N/A   Overcast
6:49 PM 35.6 °F - 35.6 °F 100% 30.30 in 2.5 mi SSE 2.3 mph - N/A   Overcast
6:58 PM 35.6 °F - 35.6 °F 100% 30.34 in 2.0 mi East 1.2 mph - N/A   Overcast
7:03 PM 35.6 °F - 35.6 °F 100% 30.31 in 2.5 mi NE 1.2 mph - N/A   Overcast
7:58 PM 35.8 °F 33.0 °F 35.6 °F 99% 30.34 in 4.0 mi East 3.5 mph - N/A   Overcast
8:44 PM 35.6 °F - 35.6 °F 100% 30.32 in 2.5 mi Variable 1.2 mph - N/A   Overcast
8:49 PM 35.6 °F - 35.6 °F 100% 30.32 in 2.5 mi NNE 1.2 mph - N/A   Overcast
9:24 PM 35.6 °F - 35.6 °F 100% 30.33 in 2.0 mi ENE 2.3 mph - N/A   Overcast
9:29 PM 35.6 °F 32.8 °F 35.6 °F 100% 30.33 in 1.8 mi NE 3.5 mph - N/A   Overcast
9:34 PM 35.6 °F - 35.6 °F 100% 30.33 in 1.5 mi ENE 2.3 mph - N/A   Overcast
9:50 PM 35.6 °F - 33.8 °F 93% 30.33 in 0.8 mi Variable 2.3 mph - N/A   Mist
9:55 PM 35.6 °F - 33.8 °F 93% 30.33 in 0.8 mi ENE 2.3 mph - N/A   Mist
9:58 PM 34.9 °F - 34.7 °F 99% 30.35 in 0.5 mi ENE 2.3 mph - N/A Fog Fog
10:29 PM 33.8 °F 30.8 °F 33.8 °F 100% 30.33 in 0.5 mi NE 3.5 mph - N/A Fog Fog
10:58 PM 34.3 °F - 34.2 °F 99% 30.35 in 0.5 mi Calm Calm - N/A Fog Fog
11:34 PM 33.8 °F - 33.8 °F 100% 30.33 in 0.5 mi Calm Calm - N/A Fog Fog
11:44 PM 33.8 °F - 33.8 °F 100% 30.33 in 0.5 mi ENE 2.3 mph - N/A Fog Fog
11:50 PM 33.8 °F - 33.8 °F 100% 30.33 in 0.5 mi East 2.3 mph - N/A Fog Fog
11:58 PM 34.3 °F - 34.2 °F 99% 30.35 in 0.5 mi NNE 1.2 mph - N/A Fog Fog